Starlink 30317

decayed
NORAD ID: 57675 Int'l Des: 2023-124 Owner: SPXS Country: US Constellation: starlink
LEOCIRCULAR

关于 Starlink 30317

正在加载描述...

高度历史

Altitude vs Time

uPlot chart will show altitude changes over time

两行轨道根数

1 57675U 23124N 25330.58587399 .01390018 13335-2 13621-2 0 9993
2 57675 53.1299 297.3805 0001297 167.2715 192.8354 16.11120722128177
Epoch: Nov 26, 2025 • Age: 1702 hours

当前状态

Position data unavailable
发射日期 Aug 22, 2023
运行时间 2.4 years
衰减日期 Nov 27, 2025
类型 internet

技术详情

分类 Payload
质量 730.00 kg
干质量 700.00 kg
总质量 730.00 kg
长度 0.30 m
直径 4.10 m
跨度 29.00 m
形状 Box + pan
制造商 SPXS
平台类型 Starlink V2M
阶段状态 Unknown Transfer Status
所有者/国家 SPXS/US

大型星座

Loading constellations...